| time (UTC) | temp C | wind direction | speed KPH | gust KPH | rain 1hr cm | rain 24hr cm | rain mn cm | humidity % | barometer mb |
| 20260505112005 | 28 | 0 | 0.0 | 3.2 | 0.00 | 0.00 | 0.00 | 81 | 1006.8 |
| 20260505111006 | 28 | 22 | 0.0 | 1.6 | 0.00 | 0.00 | 0.00 | 81 | 1006.9 |
| 20260505102003 | 29 | 67 | 3.2 | 6.4 | 0.00 | 0.00 | 0.00 | 77 | 1006.0 |
| 20260505101005 | 30 | 67 | 4.8 | 9.7 | 0.00 | 0.00 | 0.00 | 76 | 1005.9 |
| 20260505100005 | 30 | 135 | 1.6 | 4.8 | 0.00 | 0.00 | 0.00 | 76 | 1005.7 |
| 20260505095004 | 30 | 45 | 4.8 | 12.9 | 0.00 | 0.00 | 0.00 | 76 | 1005.8 |
| 20260505094005 | 30 | 112 | 1.6 | 4.8 | 0.00 | 0.00 | 0.00 | 75 | 1005.5 |
| 20260505093005 | 30 | 180 | 3.2 | 4.8 | 0.00 | 0.00 | 0.00 | 75 | 1005.6 |
| 20260505092003 | 30 | 45 | 4.8 | 9.7 | 0.00 | 0.00 | 0.00 | 74 | 1005.6 |
| 20260505091005 | 31 | 45 | 3.2 | 6.4 | 0.00 | 0.00 | 0.00 | 74 | 1005.6 |
| 20260505090005 | 31 | 67 | 3.2 | 6.4 | 0.00 | 0.00 | 0.00 | 73 | 1005.5 |
| 20260505085004 | 31 | 45 | 4.8 | 9.7 | 0.00 | 0.00 | 0.00 | 74 | 1005.3 |
| 20260505084004 | 31 | 0 | 4.8 | 12.9 | 0.00 | 0.00 | 0.00 | 73 | 1005.3 |
| 20260505083007 | 31 | 67 | 4.8 | 9.7 | 0.00 | 0.00 | 0.00 | 72 | 1005.1 |
| 20260505082004 | 31 | 45 | 4.8 | 9.7 | 0.00 | 0.00 | 0.00 | 73 | 1005.2 |
| 20260505081004 | 31 | 45 | 4.8 | 9.7 | 0.00 | 0.00 | 0.00 | 74 | 1005.3 |
| 20260505080005 | 31 | 45 | 8.0 | 12.9 | 0.00 | 0.00 | 0.00 | 71 | 1005.2 |
| 20260505075003 | 31 | 22 | 4.8 | 9.7 | 0.00 | 0.00 | 0.00 | 73 | 1005.1 |
| 20260505074005 | 31 | 67 | 3.2 | 4.8 | 0.00 | 0.00 | 0.00 | 73 | 1005.0 |
| 20260505073005 | 31 | 315 | 9.7 | 16.1 | 0.00 | 0.00 | 0.00 | 72 | 1005.4 |
| 20260505072004 | 31 | 67 | 4.8 | 9.7 | 0.00 | 0.00 | 0.00 | 72 | 1005.4 |
| 20260505071004 | 31 | 22 | 4.8 | 9.7 | 0.00 | 0.00 | 0.00 | 73 | 1005.6 |
| 20260505070005 | 31 | 45 | 4.8 | 9.7 | 0.00 | 0.00 | 0.00 | 73 | 1005.7 |
| 20260505065004 | 31 | 0 | 4.8 | 9.7 | 0.00 | 0.00 | 0.00 | 72 | 1005.7 |
| 20260505064004 | 31 | 45 | 9.7 | 14.5 | 0.00 | 0.00 | 0.00 | 73 | 1005.7 |
| 20260505063006 | 31 | 112 | 3.2 | 6.4 | 0.00 | 0.00 | 0.00 | 73 | 1005.5 |
| 20260505062004 | 32 | 22 | 9.7 | 19.3 | 0.00 | 0.00 | 0.00 | 72 | 1005.8 |
| 20260505061005 | 31 | 45 | 3.2 | 4.8 | 0.00 | 0.00 | 0.00 | 73 | 1005.8 |
| 20260505060005 | 31 | 45 | 8.0 | 14.5 | 0.00 | 0.00 | 0.00 | 72 | 1006.0 |
| 20260505055003 | 31 | 90 | 4.8 | 12.9 | 0.00 | 0.00 | 0.00 | 70 | 1006.3 |
| 20260505054004 | 34 | 67 | 11.3 | 16.1 | 0.00 | 0.00 | 0.00 | 63 | 1006.4 |
| 20260505053004 | 34 | 292 | 1.6 | 3.2 | 0.00 | 0.00 | 0.00 | 51 | 1006.5 |
| 20260505052004 | 33 | 247 | 4.8 | 4.8 | 0.00 | 0.00 | 0.00 | 54 | 1006.9 |
| 20260505051005 | 32 | 270 | 4.8 | 6.4 | 0.00 | 0.00 | 0.00 | 58 | 1006.9 |
| 20260505041005 | 32 | 157 | 4.8 | 6.4 | 0.00 | 0.00 | 0.00 | 61 | 1007.8 |
| 20260505040005 | 31 | 247 | 6.4 | 9.7 | 0.00 | 0.00 | 0.00 | 63 | 1008.1 |
| 20260505035004 | 31 | 270 | 3.2 | 4.8 | 0.00 | 0.00 | 0.00 | 64 | 1008.0 |
| 20260505034005 | 30 | 157 | 4.8 | 9.7 | 0.00 | 0.00 | 0.00 | 68 | 1008.1 |
| 20260505033005 | 31 | 225 | 9.7 | 12.9 | 0.00 | 0.00 | 0.00 | 66 | 1008.4 |
| 20260505032005 | 31 | 157 | 1.6 | 6.4 | 0.00 | 0.00 | 0.00 | 69 | 1008.6 |
| 20260505031005 | 31 | 135 | 9.7 | 12.9 | 0.00 | 0.00 | 0.00 | 69 | 1008.7 |
| 20260505030004 | 31 | 157 | 4.8 | 6.4 | 0.00 | 0.00 | 0.00 | 69 | 1008.9 |
| 20260505025004 | 30 | 225 | 0.0 | 1.6 | 0.00 | 0.00 | 0.00 | 72 | 1009.1 |
| 20260505024004 | 29 | 157 | 4.8 | 9.7 | 0.00 | 0.00 | 0.00 | 74 | 1009.4 |
| 20260505023004 | 30 | 157 | 9.7 | 12.9 | 0.00 | 0.00 | 0.00 | 74 | 1009.4 |
| 20260505022004 | 29 | 157 | 11.3 | 16.1 | 0.00 | 0.00 | 0.00 | 75 | 1009.8 |
| 20260505021003 | 29 | 135 | 6.4 | 9.7 | 0.00 | 0.00 | 0.00 | 75 | 1009.9 |
| 20260505020004 | 28 | 157 | 4.8 | 6.4 | 0.00 | 0.00 | 0.00 | 78 | 1010.1 |
| 20260505015003 | 28 | 157 | 8.0 | 12.9 | 0.00 | 0.00 | 0.00 | 79 | 1010.1 |
| 20260505014005 | 28 | 90 | 6.4 | 9.7 | 0.00 | 0.00 | 0.00 | 81 | 1010.2 |
| 20260505013006 | 28 | 135 | 4.8 | 6.4 | 0.00 | 0.00 | 0.00 | 80 | 1010.3 |
| 20260505012004 | 28 | 90 | 3.2 | 9.7 | 0.00 | 0.00 | 0.00 | 80 | 1010.2 |
| 20260505011004 | 27 | 112 | 9.7 | 12.9 | 0.00 | 0.00 | 0.00 | 81 | 1010.4 |
| 20260505010005 | 27 | 112 | 6.4 | 12.9 | 0.00 | 0.00 | 0.00 | 80 | 1010.5 |
| 20260505005004 | 27 | 135 | 6.4 | 9.7 | 0.00 | 0.00 | 0.00 | 82 | 1010.3 |
| 20260505004004 | 26 | 90 | 3.2 | 4.8 | 0.00 | 0.00 | 0.00 | 84 | 1010.5 |
| 20260505003005 | 26 | 157 | 6.4 | 9.7 | 0.00 | 0.00 | 0.00 | 84 | 1010.6 |
| 20260505002005 | 26 | 112 | 3.2 | 4.8 | 0.00 | 0.00 | 0.00 | 85 | 1010.5 |
| 20260505001004 | 26 | 157 | 4.8 | 6.4 | 0.00 | 0.00 | 0.00 | 85 | 1010.2 |
| 20260505000005 | 26 | 135 | 4.8 | 6.4 | 0.00 | 0.00 | 0.00 | 86 | 1010.2 |
| 20260504235005 | 25 | 135 | 1.6 | 3.2 | 0.00 | 0.00 | 0.00 | 87 | 1010.2 |
| 20260504234005 | 25 | 90 | 3.2 | 4.8 | 0.00 | 0.00 | 0.00 | 88 | 1010.2 |
| 20260504233005 | 25 | 112 | 1.6 | 3.2 | 0.00 | 0.00 | 0.00 | 89 | 1010.0 |
| 20260504232005 | 25 | 112 | 1.6 | 3.2 | 0.00 | 0.00 | 0.00 | 91 | 1010.0 |
| 20260504231005 | 25 | 112 | 0.0 | 0.0 | 0.00 | 0.00 | 0.00 | 91 | 1009.7 |
| 20260504230005 | 25 | 157 | 1.6 | 3.2 | 0.00 | 0.00 | 0.00 | 91 | 1009.7 |
| 20260504225005 | 25 | 157 | 0.0 | 1.6 | 0.00 | 0.00 | 0.00 | 92 | 1009.7 |
| 20260504224004 | 25 | 157 | 0.0 | 1.6 | 0.00 | 0.00 | 0.00 | 93 | 1009.6 |
| 20260504223005 | 25 | 157 | 4.8 | 4.8 | 0.00 | 0.00 | 0.00 | 93 | 1009.2 |
| 20260504222004 | 25 | 157 | 1.6 | 3.2 | 0.00 | 0.00 | 0.00 | 93 | 1009.3 |
| 20260504221005 | 25 | 180 | 1.6 | 3.2 | 0.00 | 0.00 | 0.00 | 92 | 1009.0 |
| 20260504220006 | 25 | 180 | 1.6 | 3.2 | 0.00 | 0.00 | 0.00 | 92 | 1008.9 |
| 20260504215003 | 25 | 135 | 0.0 | 1.6 | 0.00 | 0.00 | 0.00 | 93 | 1008.9 |
| 20260504214004 | 25 | 135 | 0.0 | 1.6 | 0.00 | 0.00 | 0.00 | 93 | 1008.6 |
| 20260504213005 | 25 | 135 | 0.0 | 1.6 | 0.00 | 0.00 | 0.00 | 92 | 1008.5 |
| 20260504212005 | 25 | 112 | 0.0 | 3.2 | 0.00 | 0.00 | 0.00 | 92 | 1008.3 |
| 20260504211005 | 24 | 135 | 0.0 | 3.2 | 0.00 | 0.00 | 0.00 | 93 | 1008.4 |
| 20260504210004 | 24 | 112 | 1.6 | 3.2 | 0.00 | 0.00 | 0.00 | 93 | 1008.3 |
| 20260504205004 | 24 | 112 | 1.6 | 1.6 | 0.00 | 0.00 | 0.00 | 93 | 1008.3 |
| 20260504204005 | 24 | 135 | 1.6 | 3.2 | 0.00 | 0.00 | 0.00 | 93 | 1008.6 |
| 20260504203005 | 24 | 135 | 3.2 | 4.8 | 0.00 | 0.00 | 0.00 | 93 | 1008.7 |
| 20260504202004 | 24 | 135 | 4.8 | 6.4 | 0.00 | 0.00 | 0.00 | 94 | 1008.9 |
| 20260504201005 | 24 | 112 | 0.0 | 1.6 | 0.00 | 0.00 | 0.00 | 94 | 1008.8 |
| 20260504195003 | 24 | 135 | 1.6 | 3.2 | 0.00 | 0.00 | 0.00 | 95 | 1008.8 |
| 20260504194005 | 24 | 112 | 1.6 | 4.8 | 0.00 | 0.00 | 0.00 | 95 | 1009.2 |
| 20260504193006 | 23 | 90 | 4.8 | 6.4 | 0.00 | 0.00 | 0.00 | 96 | 1009.2 |
| 20260504192003 | 23 | 90 | 3.2 | 3.2 | 0.00 | 0.00 | 0.00 | 96 | 1009.4 |
| 20260504191005 | 24 | 90 | 1.6 | 3.2 | 0.00 | 0.00 | 0.00 | 96 | 1009.5 |
| 20260504190004 | 24 | 67 | 0.0 | 1.6 | 0.00 | 0.00 | 0.00 | 96 | 1009.5 |
| 20260504185004 | 24 | 90 | 1.6 | 3.2 | 0.00 | 0.00 | 0.00 | 96 | 1009.4 |
| 20260504184005 | 24 | 90 | 3.2 | 3.2 | 0.00 | 0.00 | 0.00 | 96 | 1009.5 |
| 20260504183005 | 24 | 67 | 1.6 | 3.2 | 0.00 | 0.00 | 0.00 | 96 | 1009.6 |
| 20260504182003 | 24 | 67 | 1.6 | 3.2 | 0.00 | 0.00 | 0.00 | 95 | 1009.7 |
| 20260504181004 | 25 | 45 | 1.6 | 3.2 | 0.00 | 0.00 | 0.00 | 93 | 1009.8 |
| 20260504180005 | 25 | 135 | 0.0 | 1.6 | 0.00 | 0.00 | 0.00 | 92 | 1009.5 |
| 20260504175004 | 25 | 180 | 0.0 | 1.6 | 0.00 | 0.00 | 0.00 | 92 | 1009.6 |
| 20260504174005 | 25 | 180 | 3.2 | 3.2 | 0.00 | 0.00 | 0.00 | 92 | 1009.6 |
| 20260504173005 | 25 | 157 | 1.6 | 3.2 | 0.00 | 0.00 | 0.00 | 92 | 1009.9 |
| 20260504172003 | 25 | 135 | 0.0 | 1.6 | 0.00 | 0.00 | 0.00 | 92 | 1010.1 |
| 20260504171005 | 25 | 202 | 0.0 | 1.6 | 0.00 | 0.00 | 0.00 | 92 | 1010.4 |
| 20260504151005 | 25 | 135 | 0.0 | 3.2 | 0.00 | 0.00 | 0.00 | 87 | 1010.4 |
| 20260504141005 | 25 | 135 | 3.2 | 4.8 | 0.00 | 0.00 | 0.00 | 86 | 1010.2 |